Flag for U.S.A. Weather past 2 weeks in Charleston, West Virginia, U.S.A.

Now
73 °F

Fog.


Feels Like: 70 °F
Forecast: 71 / 87 °F
Wind: 5 mph from Southwest

Location: Yeager Airport

Current Time: Sep 1, 2014 at 5:15:26 AM

Latest Report: Sep 1, 2014 at 3:54 AM


Visibility: 6 mi

Pressure: 30.02 "Hg

Humidity: 94%

Dew point: 71 °F

Location of CharlestonLocation

Historic Weather in Charleston — Graph

°F

Charleston temperature yesterday

Maximum temperature yesterday: 79 °F (at 11:54 AM)
Minimum temperature yesterday: 70 °F (at 4:54 AM)
Average temperature yesterday: 74 °F

Past Weeks' High & Low Weather Summary

 TemperatureHumidityPressure
High90 °F (Aug 30, 4:54 PM)100% (Aug 17, 6:54 AM)30.17 "Hg (Aug 17, 6:54 AM)
Low60 °F (Aug 26, 6:54 AM)42% (Aug 30, 4:54 PM)29.77 "Hg (Aug 18, 4:54 PM)
Average74 °F85%30.01 "Hg
* Reported Aug 17 3:54 AM — Sep 1 3:54 AM, Charleston, Weather by CustomWeather, © 2014

Note: Actual official high and low records may vary slightly from our data, if they occured in-between our weather recording intervals... More about our weather records

Advertising

Charleston weather history for previous 24 hours

 ConditionsComfort  
Time TempWeatherWind HumidityBarometerVisibility
3:54 AM
Sep 1
73 °FFog.5 mph94%30.02 "Hg6 mi
2:54 AM72 °FPartly cloudy.3 mph100%30.01 "Hg10 mi
1:54 AM72 °FFog.No wind100%30.01 "Hg4 mi
12:54 AM72 °FFog.No wind100%30.01 "Hg4 mi
11:54 PM
Aug 31
72 °FLight rain. Fog.3 mph100%30.02 "Hg4 mi
10:54 PM72 °FLight rain. Fog.5 mph100%30.02 "Hg0 mi
9:54 PM72 °FOvercast.No wind100%30.03 "Hg8 mi
8:54 PM73 °FBroken clouds.5 mph97%30.03 "Hg10 mi
7:54 PM73 °FLight rain. Fog.8 mph94%30.04 "Hg5 mi
7:02 PM74 °FLight rain. Cloudy.7 mph94%30.07 "Hg8 mi
6:54 PM74 °FLight rain. Cloudy.5 mph97%30.04 "Hg10 mi
5:54 PM75 °FLight rain. Cloudy.6 mph90%30.03 "Hg10 mi
4:54 PM75 °FLight rain. Cloudy.No wind88%30.04 "Hg9 mi
3:54 PM74 °FLight rain. Cloudy.6 mph91%30.05 "Hg7 mi
3:02 PM73 °FLight rain. Mostly cloudy.3 mph97%30.11 "Hg10 mi
1:55 PM74 °FLight rain. Fog.12 mph91%30.12 "Hg2 mi
12:54 PM76 °FLight rain. Mostly cloudy.10 mph82%30.10 "Hg9 mi
11:54 AM79 °FMostly cloudy.10 mph72%30.09 "Hg10 mi
10:54 AM77 °FBroken clouds.9 mph77%30.08 "Hg10 mi
9:58 AM76 °FBroken clouds.5 mph82%30.11 "Hg10 mi
8:54 AM72 °FBroken clouds.3 mph97%30.08 "Hg9 mi
7:54 AM70 °FPartly sunny.3 mph100%30.08 "Hg8 mi
6:54 AM70 °FPassing clouds.5 mph100%30.07 "Hg10 mi
5:54 AM71 °FPassing clouds.6 mph93%30.04 "Hg10 mi
Weather by CustomWeather, © 2014

See weather overviewHow to use our weather pages